This is the latest recevied weather packets stored in our database for station/object AG7BI. If no packets are shown the sender has not sent any weather packets the latest 1 day(s).
| Time | Temp. | Humidity | Pressure | Rain* | Wind** | Luminosity | Snow |
|---|---|---|---|---|---|---|---|
| 1777985452 | 10.56° C | 92% | 1014.6 hPa | 0 mm | 0.45 m/s, 140° | - | - |
| 1777985152 | 10.56° C | 92% | 1014.4 hPa | 0 mm | 0.45 m/s, 162° | - | - |
| 1777984852 | 10.56° C | 92% | 1014.5 hPa | 0 mm | 0.89 m/s, 140° | - | - |
| 1777984552 | 10.56° C | 92% | 1014.3 hPa | 0 mm | 0.89 m/s, 122° | - | - |
| 1777984252 | 10.56° C | 92% | 1014.5 hPa | 0 mm | 0.89 m/s, 142° | - | - |
| 1777983952 | 10.56° C | 92% | 1014.3 hPa | 0 mm | 0.89 m/s, 126° | - | - |
| 1777983652 | 10.56° C | 93% | 1014.1 hPa | 0 mm | 0.89 m/s, 150° | - | - |
| 1777983352 | 10.56° C | 92% | 1014.2 hPa | 0 mm | 0.89 m/s, 140° | - | - |
| 1777983052 | 10.56° C | 93% | 1014.5 hPa | 0 mm | 0.89 m/s, 134° | - | - |
| 1777982752 | 10.56° C | 93% | 1014.1 hPa | 0 mm | 0.45 m/s, 131° | - | - |
| 1777982452 | 10.56° C | 93% | 1014.3 hPa | 0 mm | 0.89 m/s, 154° | - | - |
| 1777982152 | 10.56° C | 94% | 1014.2 hPa | 0 mm | 0.45 m/s, 124° | - | - |
| 1777981852 | 10.56° C | 94% | 1014.1 hPa | 0 mm | 0.45 m/s, 147° | - | - |
| 1777981552 | 10.56° C | 94% | 1014.2 hPa | 0 mm | 0.45 m/s, 113° | - | - |
| 1777981252 | 10.56° C | 95% | 1014.1 hPa | 0 mm | 0.89 m/s, 122° | - | - |
| 1777980952 | 10.56° C | 95% | 1014.1 hPa | 0 mm | 0.89 m/s, 139° | - | - |
| 1777980652 | 10.56° C | 95% | 1014.2 hPa | 0 mm | 0.89 m/s, 137° | - | - |
| 1777980352 | 10° C | 96% | 1014.2 hPa | 0 mm | 0.89 m/s, 130° | - | - |
| 1777980052 | 10° C | 96% | 1014.2 hPa | 0 mm | 0.89 m/s, 134° | - | - |
| 1777979752 | 10° C | 96% | 1014.1 hPa | 0 mm | 0.45 m/s, 149° | - | - |
| 1777979452 | 10° C | 96% | 1014.1 hPa | 0 mm | 0.89 m/s, 119° | - | - |
| 1777979152 | 10° C | 96% | 1014 hPa | 0 mm | 0.89 m/s, 135° | - | - |
| 1777978852 | 10° C | 97% | 1014 hPa | 0 mm | 0.45 m/s, 155° | - | - |
| 1777978552 | 10° C | 97% | 1013.9 hPa | 0 mm | 0.89 m/s, 139° | - | - |
| 1777978252 | 9.44° C | 97% | 1013.9 hPa | 0 mm | 0.89 m/s, 129° | - | - |
* Rain latest hour (hover to see other rain measurements)
** Current wind speed in m/s (hover to see current wind gust speed)